NEWPRT Weather Reports


Display with metric or nautical units.
time (UTC)temp
F
wind
direction
speed
MPH
gust
MPH
rain 1hr
in
rain 24hr
in
rain mn
in
humidity
%
barometer
mb
20260508002603 0 117 5.0 12.0 0.00 0.00 0.00 50 1019.1
20260508002040 0 86 5.0 11.0 0.00 0.00 0.00 51 1019.1
20260508001517 0 92 6.0 11.0 0.00 0.00 0.00 51 1019.2
20260508000954 0 78 5.0 11.0 0.00 0.00 0.00 50 1019.3
20260508000431 0 114 5.0 9.0 0.00 0.00 0.00 49 1019.2
20260507235908 0 99 7.0 11.0 0.00 0.00 0.00 48 1019.2
20260507235345 0 96 5.0 11.0 0.00 0.00 0.00 48 1019.4
20260507234822 0 93 5.0 11.0 0.00 0.00 0.00 48 1019.4
20260507234259 0 98 5.0 13.0 0.00 0.00 0.00 47 1019.4
20260507233736 0 99 6.0 13.0 0.00 0.00 0.00 48 1019.3
20260507233213 0 86 6.0 11.0 0.00 0.00 0.00 47 1019.3
20260507232650 0 89 5.0 14.0 0.00 0.00 0.00 47 1019.5
20260507232128 0 100 2.0 14.0 0.00 0.00 0.00 50 1019.5
20260507231603 0 109 6.0 11.0 0.00 0.00 0.00 51 1019.6
20260507231040 0 98 5.0 11.0 0.00 0.00 0.00 47 1019.6
20260507230517 0 123 6.0 11.0 0.00 0.00 0.00 47 1019.6
20260507225954 0 100 6.0 11.0 0.00 0.00 0.00 48 1019.6
20260507225431 0 81 4.0 11.0 0.00 0.00 0.00 48 1019.8
20260507224908 0 82 6.0 10.0 0.00 0.00 0.00 49 1019.8
20260507224345 0 78 4.0 11.0 0.00 0.00 0.00 46 1019.7
20260507223822 0 88 3.0 11.0 0.00 0.00 0.00 48 1019.7
20260507223301 0 96 6.0 11.0 0.00 0.00 0.00 46 1019.9
20260507222736 0 126 6.0 10.0 0.00 0.00 0.00 46 1019.8
20260507222213 0 100 5.0 10.0 0.00 0.00 0.00 48 1020.1
20260507221651 0 103 4.0 12.0 0.00 0.00 0.00 47 1020.1
20260507221127 0 81 6.0 12.0 0.00 0.00 0.00 47 1020.2
20260507220604 0 93 3.0 10.0 0.00 0.00 0.00 48 1020.3
20260507220041 0 99 5.0 10.0 0.00 0.00 0.00 49 1020.5
20260507215518 0 126 3.0 14.0 0.00 0.00 0.00 50 1020.8
20260507214956 0 93 3.0 14.0 0.00 0.00 0.00 50 1020.6
20260507214432 0 85 6.0 14.0 0.00 0.00 0.00 49 1021.0
20260507213909 0 81 4.0 14.0 0.00 0.00 0.00 48 1020.6
20260507213347 0 109 2.0 14.0 0.00 0.00 0.00 50 1020.6
20260507212823 0 114 4.0 14.0 0.00 0.00 0.00 48 1020.9
20260507212300 0 93 4.0 8.0 0.00 0.00 0.00 47 1020.6
20260507211737 0 98 5.0 11.0 0.00 0.00 0.00 47 1020.6
20260507211214 0 95 4.0 11.0 0.00 0.00 0.00 47 1020.8
20260507210652 0 98 6.0 9.0 0.00 0.00 0.00 48 1020.9
20260507210128 0 102 3.0 9.0 0.00 0.00 0.00 47 1020.5
20260507205605 0 89 6.0 9.0 0.00 0.00 0.00 47 1020.6
20260507205042 0 112 5.0 9.0 0.00 0.00 0.00 45 1020.5
20260507204519 0 92 3.0 9.0 0.00 0.00 0.00 46 1020.4
20260507203956 0 105 2.0 9.0 0.00 0.00 0.00 47 1020.5
20260507203433 0 98 1.0 9.0 0.00 0.00 0.00 47 1020.5
20260507202910 0 71 3.0 10.0 0.00 0.00 0.00 46 1020.6
20260507202349 0 106 5.0 10.0 0.00 0.00 0.00 44 1020.8
20260507201824 0 102 3.0 10.0 0.00 0.00 0.00 46 1020.5
20260507201301 0 98 3.0 8.0 0.00 0.00 0.00 47 1020.6
20260507200739 0 114 4.0 8.0 0.00 0.00 0.00 44 1020.8
20260507200215 0 105 4.0 9.0 0.00 0.00 0.00 46 1020.8
20260507195652 0 99 3.0 9.0 0.00 0.00 0.00 46 1020.8
20260507195129 0 93 3.0 9.0 0.00 0.00 0.00 47 1020.9
20260507194606 0 106 4.0 9.0 0.00 0.00 0.00 46 1021.1
20260507194043 0 106 3.0 9.0 0.00 0.00 0.00 47 1021.0
20260507193520 0 88 3.0 9.0 0.00 0.00 0.00 45 1021.1
20260507192957 0 88 2.0 9.0 0.00 0.00 0.00 48 1021.1
20260507192434 0 109 4.0 11.0 0.00 0.00 0.00 47 1021.1
20260507191911 0 114 4.0 11.0 0.00 0.00 0.00 47 1021.2
20260507191348 0 107 5.0 11.0 0.00 0.00 0.00 45 1021.2
20260507190825 0 103 1.0 9.0 0.00 0.00 0.00 45 1021.1
20260507190302 0 110 4.0 9.0 0.00 0.00 0.00 48 1021.1
20260507185739 0 91 4.0 7.0 0.00 0.00 0.00 48 1021.3
20260507185216 0 81 3.0 9.0 0.00 0.00 0.00 47 1021.5
20260507184653 0 107 3.0 9.0 0.00 0.00 0.00 48 1021.5
20260507184130 0 95 3.0 9.0 0.00 0.00 0.00 47 1021.4
20260507183607 0 75 2.0 9.0 0.00 0.00 0.00 48 1021.5
20260507183044 0 95 4.0 9.0 0.00 0.00 0.00 49 1021.4
20260507182521 0 98 3.0 8.0 0.00 0.00 0.00 49 1021.5
20260507181958 0 99 4.0 9.0 0.00 0.00 0.00 48 1021.4
20260507181435 0 105 3.0 9.0 0.00 0.00 0.00 48 1021.5
20260507180912 0 113 3.0 9.0 0.00 0.00 0.00 49 1021.6
20260507180349 0 100 2.0 9.0 0.00 0.00 0.00 50 1021.4
20260507175826 0 99 3.0 9.0 0.00 0.00 0.00 52 1021.4
20260507175306 0 86 4.0 8.0 0.00 0.00 0.00 50 1021.5
20260507174740 0 106 4.0 8.0 0.00 0.00 0.00 50 1021.7
20260507174217 0 91 4.0 7.0 0.00 0.00 0.00 52 1021.7
20260507173654 0 100 2.0 9.0 0.00 0.00 0.00 52 1021.7
20260507173131 0 96 3.0 9.0 0.00 0.00 0.00 51 1021.6
20260507172608 0 100 3.0 8.0 0.00 0.00 0.00 51 1021.7
20260507172045 0 100 3.0 7.0 0.00 0.00 0.00 51 1021.8
20260507171522 0 99 3.0 7.0 0.00 0.00 0.00 51 1021.7
20260507170959 0 92 0.0 7.0 0.00 0.00 0.00 52 1021.7
20260507170436 0 93 1.0 8.0 0.00 0.00 0.00 52 1021.8
20260507165913 0 102 0.0 8.0 0.00 0.00 0.00 55 1021.8
20260507165349 0 91 2.0 8.0 0.00 0.00 0.00 53 1021.7
20260507164827 0 100 1.0 7.0 0.00 0.00 0.00 55 1021.7
20260507164304 0 103 1.0 7.0 0.00 0.00 0.00 55 1021.6
20260507163741 0 99 1.0 5.0 0.00 0.00 0.00 54 1021.9
20260507163218 0 110 2.0 10.0 0.00 0.00 0.00 54 1021.7
20260507162655 0 103 4.0 10.0 0.00 0.00 0.00 53 1021.7
20260507162132 0 105 3.0 9.0 0.00 0.00 0.00 55 1021.6
20260507161609 0 249 0.0 10.0 0.00 0.00 0.00 57 1021.8
20260507161046 0 75 1.0 10.0 0.00 0.00 0.00 57 1021.8
20260507160523 0 92 1.0 10.0 0.00 0.00 0.00 58 1021.5
20260507155959 0 327 0.0 6.0 0.00 0.00 0.00 61 1021.6
20260507155437 0 98 0.0 7.0 0.00 0.00 0.00 57 1021.6
20260507154914 0 84 4.0 7.0 0.00 0.00 0.00 57 1021.7
20260507154350 0 107 2.0 7.0 0.00 0.00 0.00 57 1021.5
20260507153827 0 86 0.0 5.0 0.00 0.00 0.00 60 1021.5
20260507153304 0 86 0.0 5.0 0.00 0.00 0.00 59 1021.6
20260507152741 0 88 0.0 5.0 0.00 0.00 0.00 61 1021.8
20260507152218 0 86 0.0 8.0 0.00 0.00 0.00 59 1021.6
20260507151655 0 106 2.0 8.0 0.00 0.00 0.00 61 1021.6
20260507151132 0 88 3.0 5.0 0.00 0.00 0.00 59 1021.6
20260507150610 0 91 1.0 5.0 0.00 0.00 0.00 60 1021.6
20260507150046 0 99 1.0 5.0 0.00 0.00 0.00 62 1021.5
20260507145524 0 123 2.0 6.0 0.00 0.00 0.00 61 1021.4
20260507145000 0 158 0.0 6.0 0.00 0.00 0.00 63 1021.6
20260507144437 0 82 2.0 6.0 0.00 0.00 0.00 62 1021.6
20260507143914 0 119 3.0 5.0 0.00 0.00 0.00 62 1021.5
20260507143353 0 110 0.0 5.0 0.00 0.00 0.00 62 1021.5
20260507142828 0 92 0.0 5.0 0.00 0.00 0.00 62 1021.5
20260507142307 0 100 0.0 4.0 0.00 0.00 0.00 61 1021.2
20260507141743 0 103 0.0 3.0 0.00 0.00 0.00 61 1021.3
20260507141219 0 100 0.0 5.0 0.00 0.00 0.00 64 1021.3
20260507140658 0 106 0.0 5.0 0.00 0.00 0.00 62 1021.3
20260507140136 0 102 0.0 3.0 0.00 0.00 0.00 64 1021.5
20260507135610 0 0 1.0 3.0 0.00 0.00 0.00 63 1021.2
20260507135047 0 0 0.0 3.0 0.00 0.00 0.00 65 1021.2
20260507134524 0 116 0.0 3.0 0.00 0.00 0.00 64 1021.1
20260507134001 0 0 0.0 2.0 0.00 0.00 0.00 63 1021.1
20260507133438 0 0 0.0 2.0 0.00 0.00 0.00 64 1021.0
20260507132915 0 144 0.0 4.0 0.00 0.00 0.00 64 1021.0
20260507132352 0 96 0.0 4.0 0.00 0.00 0.00 64 1021.1
20260507131829 0 95 0.0 4.0 0.00 0.00 0.00 65 1021.1
20260507131306 0 98 0.0 4.0 0.00 0.00 0.00 66 1021.1
20260507130743 0 105 0.0 4.0 0.00 0.00 0.00 65 1020.9
20260507130220 0 100 0.0 4.0 0.00 0.00 0.00 64 1020.8
20260507125657 0 109 1.0 6.0 0.00 0.00 0.00 66 1021.0
20260507125134 0 112 1.0 6.0 0.00 0.00 0.00 63 1020.8
20260507124612 0 109 2.0 6.0 0.00 0.00 0.00 64 1020.8
20260507124048 0 109 0.0 6.0 0.00 0.00 0.00 66 1020.8
20260507123529 0 91 0.0 6.0 0.00 0.00 0.00 65 1020.9
20260507123003 0 68 2.0 6.0 0.00 0.00 0.00 66 1020.8
20260507122439 0 79 1.0 8.0 0.00 0.00 0.00 66 1020.9
20260507121916 0 92 1.0 8.0 0.00 0.00 0.00 67 1021.1
20260507121353 0 88 2.0 8.0 0.00 0.00 0.00 67 1021.1
20260507120830 0 78 1.0 7.0 0.00 0.00 0.00 67 1021.1
20260507120309 0 110 1.0 7.0 0.00 0.00 0.00 66 1021.2
20260507115744 0 103 3.0 6.0 0.00 0.00 0.00 65 1021.2
20260507115222 0 99 1.0 6.0 0.00 0.00 0.00 66 1021.1
20260507114659 0 103 3.0 5.0 0.00 0.00 0.00 66 1021.3
20260507114136 0 82 0.0 5.0 0.00 0.00 0.00 65 1021.3
20260507113616 0 78 1.0 5.0 0.00 0.00 0.00 68 1021.3
20260507113050 0 93 1.0 5.0 0.00 0.00 0.00 68 1021.2
20260507112527 0 105 2.0 5.0 0.00 0.00 0.00 66 1021.4
20260507112003 0 92 2.0 4.0 0.00 0.00 0.00 67 1021.2
20260507111440 0 82 0.0 4.0 0.00 0.00 0.00 66 1021.3
20260507110917 0 102 1.0 2.0 0.00 0.00 0.00 64 1021.4
20260507110354 0 0 0.0 3.0 0.00 0.00 0.00 62 1021.3
20260507105831 0 0 0.0 3.0 0.00 0.00 0.00 64 1021.4
20260507105308 0 299 0.0 3.0 0.00 0.00 0.00 64 1021.4
20260507104747 0 264 0.0 5.0 0.00 0.00 0.00 66 1021.5
20260507104223 0 236 2.0 5.0 0.00 0.00 0.00 64 1021.6
20260507103749 0 225 0.0 6.0 0.00 0.00 0.00 66 1021.6
20260507103659 0 225 0.0 6.0 0.00 0.00 0.00 66 1021.6
20260507103136 0 228 1.0 6.0 0.00 0.00 0.00 65 1021.6
20260507102613 0 218 1.0 6.0 0.00 0.00 0.00 68 1021.8
20260507102050 0 232 0.0 6.0 0.00 0.00 0.00 68 1021.8
20260507101527 0 238 1.0 4.0 0.00 0.00 0.00 69 1021.8
20260507101004 0 289 1.0 4.0 0.00 0.00 0.00 69 1021.8
20260507100441 0 259 0.0 4.0 0.00 0.00 0.00 70 1021.7
20260507095918 0 246 0.0 4.0 0.00 0.00 0.00 71 1021.9
20260507095355 0 260 0.0 4.0 0.00 0.00 0.00 70 1021.8
20260507094832 0 245 0.0 4.0 0.00 0.00 0.00 71 1021.8
20260507094309 0 0 1.0 3.0 0.00 0.00 0.00 70 1021.8
20260507093838 0 250 0.0 3.0 0.00 0.00 0.00 73 1021.9
20260507093746 0 250 0.0 3.0 0.00 0.00 0.00 73 1021.9
20260507093225 0 270 0.0 5.0 0.00 0.00 0.00 71 1022.0
20260507092700 0 281 1.0 5.0 0.00 0.00 0.00 72 1022.0
20260507092137 0 235 1.0 4.0 0.00 0.00 0.00 71 1022.1
20260507091614 0 270 0.0 4.0 0.00 0.00 0.00 73 1022.2
20260507091051 0 0 0.0 4.0 0.00 0.00 0.00 73 1022.2
20260507090528 0 263 0.0 4.0 0.00 0.00 0.00 74 1022.1
20260507090005 0 0 0.0 2.0 0.00 0.00 0.00 75 1022.1
20260507085442 0 0 0.0 2.0 0.00 0.00 0.00 75 1022.2
20260507084919 0 288 0.0 4.0 0.00 0.00 0.00 75 1022.2
20260507084356 0 263 0.0 4.0 0.00 0.00 0.00 74 1022.2
20260507083833 0 193 0.0 4.0 0.00 0.00 0.00 75 1022.2
20260507083310 0 254 0.0 5.0 0.00 0.00 0.00 75 1022.2
20260507082747 0 266 0.0 5.0 0.00 0.00 0.00 75 1022.3
20260507082224 0 214 1.0 4.0 0.00 0.00 0.00 76 1022.3
20260507081701 0 231 0.0 4.0 0.00 0.00 0.00 76 1022.3
20260507081138 0 263 1.0 5.0 0.00 0.00 0.00 77 1022.3
20260507080615 0 232 0.0 5.0 0.00 0.00 0.00 77 1022.4
20260507080052 0 238 0.0 5.0 0.00 0.00 0.00 78 1022.3
20260507075530 0 217 1.0 4.0 0.00 0.00 0.00 80 1022.2
20260507075006 0 260 0.0 4.0 0.00 0.00 0.00 77 1022.2
20260507074442 0 212 0.0 4.0 0.00 0.00 0.00 80 1022.4
20260507073922 0 257 1.0 6.0 0.00 0.00 0.00 78 1022.3
20260507073356 0 215 0.0 6.0 0.00 0.00 0.00 79 1022.3
20260507072834 0 260 0.0 6.0 0.00 0.00 0.00 78 1022.4
20260507072323 0 219 0.0 2.0 0.00 0.00 0.00 79 1022.5
20260507071747 0 0 0.0 2.0 0.00 0.00 0.00 79 1022.5
20260507071225 0 218 0.0 2.0 0.00 0.00 0.00 77 1022.3
20260507070701 0 243 0.0 5.0 0.00 0.00 0.00 77 1022.3
20260507070139 0 271 0.0 5.0 0.00 0.00 0.00 77 1022.3
20260507065615 0 100 0.0 5.0 0.00 0.00 0.00 78 1022.4
20260507065052 0 302 1.0 4.0 0.00 0.00 0.00 80 1022.4
20260507064530 0 0 0.0 0.0 0.00 0.00 0.00 79 1022.4
20260507064006 0 0 0.0 3.0 0.00 0.00 0.00 81 1022.5
20260507063444 0 0 0.0 3.0 0.00 0.00 0.00 80 1022.5
20260507062921 0 250 0.0 3.0 0.00 0.00 0.00 81 1022.4
20260507062357 0 0 0.0 8.0 0.00 0.00 0.00 82 1022.5
20260507061834 0 222 0.0 8.0 0.00 0.00 0.00 82 1022.5
20260507061311 0 113 0.0 8.0 0.00 0.00 0.00 82 1022.6
20260507060749 0 0 0.0 0.0 0.00 0.00 0.00 81 1022.6
20260507060225 0 0 0.0 2.0 0.00 0.00 0.00 83 1022.6
20260507055702 0 215 0.0 2.0 0.00 0.00 0.00 84 1022.8
20260507055139 0 243 0.0 3.0 0.00 0.00 0.00 83 1022.8
20260507054616 0 268 0.0 3.0 0.00 0.00 0.00 82 1022.7
20260507054053 0 217 0.0 3.0 0.00 0.00 0.00 83 1022.8
20260507053530 0 233 0.0 2.0 0.00 0.00 0.00 85 1022.9
20260507053007 0 0 0.0 0.0 0.00 0.00 0.00 85 1022.9
20260507052444 0 0 0.0 0.0 0.00 0.00 0.00 84 1022.9
20260507051923 0 0 0.0 0.0 0.00 0.00 0.00 85 1022.9
20260507051358 0 0 0.0 0.0 0.00 0.00 0.00 84 1023.0
20260507050835 0 0 0.0 2.0 0.00 0.00 0.00 85 1023.0
20260507050312 0 92 0.0 2.0 0.00 0.00 0.00 84 1022.8
20260507045749 0 0 0.0 0.0 0.00 0.00 0.00 83 1023.0
20260507045226 0 266 0.0 6.0 0.00 0.00 0.00 83 1023.0
20260507044703 0 85 0.0 6.0 0.00 0.00 0.00 84 1023.0
20260507044140 0 0 0.0 6.0 0.00 0.00 0.00 85 1022.9
20260507043617 0 124 0.0 6.0 0.00 0.00 0.00 83 1022.9
20260507043054 0 294 0.0 4.0 0.00 0.00 0.00 84 1023.0
20260507042534 0 144 0.0 4.0 0.00 0.00 0.00 81 1022.9
20260507042008 0 246 0.0 2.0 0.00 0.00 0.00 80 1022.8
20260507041445 0 0 0.0 8.0 0.00 0.00 0.00 80 1022.9
20260507040923 0 93 0.0 8.0 0.00 0.00 0.00 75 1022.9
20260507040359 0 93 0.0 8.0 0.00 0.00 0.00 71 1022.9
20260507035836 0 116 4.0 8.0 0.00 0.00 0.00 68 1022.9
20260507035313 0 116 2.0 3.0 0.00 0.00 0.00 70 1022.9
20260507034750 0 107 0.0 2.0 0.00 0.00 0.00 71 1022.9
20260507034227 0 103 0.0 6.0 0.00 0.00 0.00 70 1023.0
20260507033704 0 99 0.0 6.0 0.00 0.00 0.00 71 1023.0
20260507033141 0 119 4.0 5.0 0.00 0.00 0.00 70 1022.9
20260507032618 0 128 2.0 4.0 0.00 0.00 0.00 70 1022.9
20260507032055 0 0 0.0 2.0 0.00 0.00 0.00 71 1023.0
20260507031532 0 105 0.0 5.0 0.00 0.00 0.00 71 1023.0
20260507031009 0 103 0.0 5.0 0.00 0.00 0.00 71 1022.9
20260507030446 0 100 1.0 5.0 0.00 0.00 0.00 70 1022.9
20260507025923 0 106 2.0 4.0 0.00 0.00 0.00 70 1022.9
20260507025401 0 89 0.0 5.0 0.00 0.00 0.00 71 1022.9
20260507024837 0 110 2.0 5.0 0.00 0.00 0.00 69 1022.8
20260507024314 0 116 0.0 5.0 0.00 0.00 0.00 69 1022.8
20260507023751 0 110 3.0 5.0 0.00 0.00 0.00 70 1022.8
20260507023228 0 110 1.0 4.0 0.00 0.00 0.00 70 1022.8
20260507022705 0 116 2.0 4.0 0.00 0.00 0.00 69 1022.8
20260507022142 0 102 1.0 3.0 0.00 0.00 0.00 69 1022.8
20260507021619 0 117 1.0 4.0 0.00 0.00 0.00 69 1022.8
20260507021056 0 110 1.0 4.0 0.00 0.00 0.00 70 1022.9
20260507020533 0 119 0.0 4.0 0.00 0.00 0.00 70 1023.0
20260507020011 0 99 2.0 4.0 0.00 0.00 0.00 69 1023.0
20260507015447 0 102 1.0 5.0 0.00 0.00 0.00 69 1022.9
20260507014924 0 121 0.0 5.0 0.00 0.00 0.00 68 1022.8
20260507014401 0 117 2.0 5.0 0.00 0.00 0.00 70 1023.1
20260507013838 0 130 0.0 5.0 0.00 0.00 0.00 67 1022.9
20260507013315 0 124 1.0 5.0 0.00 0.00 0.00 70 1023.1
20260507012752 0 109 0.0 4.0 0.00 0.00 0.00 71 1023.2
20260507012229 0 120 0.0 4.0 0.00 0.00 0.00 71 1023.3
20260507011706 0 81 1.0 6.0 0.00 0.00 0.00 70 1023.3
20260507011143 0 119 2.0 6.0 0.00 0.00 0.00 70 1023.2
20260507010620 0 91 3.0 6.0 0.00 0.00 0.00 70 1023.2
20260507010058 0 110 2.0 6.0 0.00 0.00 0.00 71 1023.3
20260507005534 0 102 1.0 6.0 0.00 0.00 0.00 70 1023.3
20260507005012 0 109 3.0 6.0 0.00 0.00 0.00 71 1023.2
20260507004447 0 113 2.0 6.0 0.00 0.00 0.00 72 1023.2
20260507003924 0 89 1.0 6.0 0.00 0.00 0.00 74 1023.2
20260507003401 0 98 1.0 6.0 0.00 0.00 0.00 74 1023.3
20260507002841 0 114 2.0 6.0 0.00 0.00 0.00 75 1023.2